Location: Carri�res
(48.9069°N, 2.1792°E)
Time: 13:35:45
(UTC+00:00)

ATLAS 2AS CENTAUR R/B - Pass Details

Date: 17 January 2021
Orbit: 947 x 1265 km, 63.7° (Epoch: 13 February)

Event Time Altitude Azimuth Distance (km) Brightness Sun altitude
Rises 18:32:10 0° 248° (WSW) 4,213 7.2 -20.3°
Reaches altitude 10° 18:35:08 10° 254° (WSW) 3,251 6.4 -20.8°
Maximum altitude 18:42:42 46° 326° (NW) 1,630 3.8 -22.0°
Enters shadow 18:48:01 19° 31° (NNE) 2,545 4.3 -22.9°
